Regional Weather Roundup
Issued by NWS

Home | Current Version | Previous Version | Graphics & Text | Print | Product List | Glossary On
Versions: 1 2 3 4 5 6 7 8 9 10 11 12 13 14 15 16 17 18 19 20 21 22 23 24 25 26 27 28 29 30 31 32 33 34 35 36 37 38 39 40 41 42 43 44 45 46 47 48 49 50
000
ASUS43 KLMK 292102
RWRKY
KENTUCKY REGIONAL WEATHER ROUNDUP
NATIONAL WEATHER SERVICE LOUISVILLE KY
500 PM EDT WED OCT 29 2014

NOTE "FAIR" INDICATES FEW OR NO CLOUDS BELOW 12,000 FEET
WITH NO SIGNIFICANT WEATHER AND/OR OBSTRUCTIONS TO VISIBILITY.

KYZ001>023-026-027-061>063-070>075-292200-
WESTERN AND SOUTH CENTRAL KENTUCKY

CITY           SKY/WX    TMP DP  RH WIND       PRES   REMARKS
PADUCAH        SUNNY     64  34  32 NW9G17    30.12S
HENDERSON      SUNNY     61  36  39 W15       30.11S
OWENSBORO      SUNNY     61  38  42 W14       30.11S
HOPKINSVILLE   SUNNY     63  36  35 W13G22    30.11S
BOWLING GREEN  MOSUNNY   63  36  36 W10       30.10S
GLASGOW        SUNNY     62  35  37 W7        30.09S
$$

KYZ024-025-028>034-038-045-046-053-292200-
NORTH CENTRAL KENTUCKY

CITY           SKY/WX    TMP DP  RH WIND       PRES   REMARKS
LOUISVILLE/SDF MOSUNNY   62  34  35 W9        30.07R
LOUISVILLE/LOU SUNNY     61  33  35 NW15      30.07S
FORT KNOX      SUNNY     61  35  37 W13G20    30.07R
$$

KYZ035>037-039>044-047>052-055>060-089>105-292200-
NORTHEAST KENTUCKY

CITY           SKY/WX    TMP DP  RH WIND       PRES   REMARKS
LEXINGTON      SUNNY     63  35  35 W13       30.06R
COVINGTON      MOSUNNY   59  34  39 W13       30.05R
FRANKFORT      SUNNY     61  33  35 NW9G17    30.05S
$$

KYZ054-064>069-076>088-106>120-292200-
SOUTHEAST KENTUCKY

CITY           SKY/WX    TMP DP  RH WIND       PRES   REMARKS
JACKSON        SUNNY     61  34  36 VRB6      30.04F
LONDON         SUNNY     63  34  33 W14G20    30.06F
SOMERSET       MOSUNNY   59  34  38 NW9G17    30.09S
MIDDLESBORO    SUNNY     61  40  46 N7        30.07S
MONTICELLO     CLEAR     64  36  35 W8        30.10S
$$




USA.gov is the U.S. government's official web portal to all federal, state and local government web resources and services.